Tracking 19562 objects as of 21-Mar-2019
HD Live streaming from Space Station
objects crossing your sky now

RELAY 2

Track RELAY 2 now!
10-day predictions
RELAY 2 is classified as:


NORAD ID: 737
Int'l Code: 1964-003A
Perigee: 1,870.6 km
Apogee: 7,644.1 km
Inclination: 46.5 °
Period: 194.7 minutes
Semi major axis: 11128 km
RCS: 0.7112 m2 (medium)
Launch date: January 21, 1964
Source: United States (US)
Launch site: AIR FORCE EASTERN TEST RANGE (AFETR)
aabbcc
Your satellite tracking list
Your tracking list is empty




NASA's NSSDC Master Catalog

Two Line Element Set (TLE):
1   737U 64003A   19077.99149500 -.00000011 +00000-0 +00000-0 0  9994
2   737 046.4611 084.6502 2594045 294.1327 041.0347 07.39534376490507
Source of the keplerian elements: AFSPC